Location: Unspecified
(40.7945°N, 111.1337°W)
Time: 10:05:54
(UTC-06:00)

Cosmos 1674 - Pass Details

Date: 24 March 2019
Orbit: 497 x 518 km, 82.5° (Epoch: 23 April)

Event Time Altitude Azimuth Distance (km) Brightness Sun altitude
Rises 21:31:12 0° 348° (NNW) 2,607 6.7 -21.1°
Reaches altitude 10° 21:33:20 10° 345° (NNW) 1,722 5.8 -21.5°
Maximum altitude 21:37:03 62° 265° (W) 574 3.0 -22.2°
Enters shadow 21:38:03 43° 206° (SSW) 717 3.3 -22.3°
